Regional Weather Roundup
Issued by NWS

Home | Current Version | Previous Version | Graphics & Text | Print | Product List | Glossary On
Versions: 1 2 3 4 5 6 7 8 9 10 11 12 13 14 15 16 17 18 19 20 21 22 23 24 25 26 27 28 29 30 31 32 33 34 35 36 37 38 39 40 41 42 43 44 45 46 47 48 49 50
000
ASUS43 KDMX 280607
RWRIA

WEATHER ROUNDUP FOR IOWA
NATIONAL WEATHER SERVICE DES MOINES IA
100 AM CDT SAT MAR 28 2015

NOTE: "FAIR" INDICATES FEW OR NO CLOUDS BELOW 12,000 FEET WITH NO
SIGNIFICANT WEATHER AND/OR OBSTRUCTIONS TO VISIBILITY.

* - THESE STATIONS ARE NOT NWS STATIONS...THUS NOT UNDER NWS
QUALITY CONTROL.  THEY ALSO DO NOT REPORT WEATHER SUCH
AS PRECIPITATION OR FOG.

IAZ001>003-012>014-020>022-031>034-043>046-280700-
   NORTHWEST IOWA

CITY           SKY/WX    TMP DP  RH WIND       PRES   REMARKS
CARROLL *      FLURRIES  32  27  80 CALM      30.13S
CHEROKEE *     MIX PCPN  30  28  92 E5        30.13R WCI  25
DENISON *      CLOUDY    30  30 100 SE5       30.09F WCI  25
LE MARS *      CLOUDY    32  25  74 E8        30.11R WCI  25
ORANGE CITY *  CLOUDY    34  25  69 E7        30.10S WCI  28
SHELDON *      CLOUDY    28  28 100 SE9       30.10S WCI  20
SIOUX CITY     CLOUDY    34  22  61 SE8       30.10R WCI  27
6HR MIN TEMP:  34; 6HR MAX TEMP:  35; 6HR PCP: TRACE;

SPENCER        LGT SNOW  29  25  85 SE3       30.13S FOG
6HR MIN TEMP:  29; 6HR MAX TEMP:  34; 6HR PCP:  0.02;

STORM LAKE *   FLURRIES  28  27  93 SE5       30.12S WCI  23
$$

IAZ055>058-069>071-079>083-090>094-280700-
   SOUTHWEST IOWA

CITY           SKY/WX    TMP DP  RH WIND       PRES   REMARKS
ATLANTIC *     FLURRIES  32  28  86 CALM      30.12F
AUDUBON *      FLURRIES  32  25  74 S5        30.12S WCI  27
CLARINDA *     FLURRIES  34  28  80 E5        30.14S WCI  30
COUNCIL BLFS * CLOUDY    34  25  69 SE12      30.10R WCI  25
CRESTON *      CLOUDY    32  25  74 CALM      30.12F
HARLAN  *      CLOUDY    30  32 100 SE8       30.14F WCI  23
LAMONI         CLOUDY    35  21  56 E3        30.12F
6HR MIN TEMP:  35; 6HR MAX TEMP:  40;

RED OAK *      CLOUDY    32  28  86 SE8       30.12S WCI  25
SHENANDOAH *   CLOUDY    36  28  75 SE9       30.11F WCI  29
$$

IAZ047>049-059>061-072>074-084-280700-
   CENTRAL IOWA

CITY           SKY/WX    TMP DP  RH WIND       PRES   REMARKS
AMES           CLOUDY    30  15  53 SE7       30.15S WCI  23
6HR MIN TEMP:  29; 6HR MAX TEMP:  36;

ANKENY *       CLOUDY    32  14  47 SE7       30.15F WCI  26
CHARITON *     CLOUDY    32  16  51 SE6       30.15S WCI  26
DES MOINES     CLOUDY    34  11  38 SE7       30.15S WCI  28
6HR MIN TEMP:  34; 6HR MAX TEMP:  39;

GRINNELL*      MOCLDY    27  16  63 E5        30.17S WCI  21
KNOXVILLE *    CLOUDY    30  10  43 SE6       30.15S WCI  24
MARSHALLTOWN   MOCLDY    25  17  72 E8        30.16F WCI  16
6HR MIN TEMP:  25; 6HR MAX TEMP:  36;

PELLA *        PTCLDY    29  17  61 SE5       30.18S WCI  24
PERRY *        CLOUDY    34  19  55 SE6       30.13F WCI  29
$$

IAZ004>006-015-016-023>025-035-036-280700-
   NORTH CENTRAL IOWA

CITY           SKY/WX    TMP DP  RH WIND       PRES   REMARKS
ALGONA *       CLOUDY    30  23  74 SE8       30.14S WCI  23
CLARION *      CLOUDY    28  19  69 SE13      30.14F WCI  18
ESTHERVILLE    CLOUDY    29  25  85 W3        30.12S
6HR MIN TEMP:  29; 6HR MAX TEMP:  34;

FORT DODGE *   CLOUDY    30  18  59 E8        30.14S WCI  23
MASON CITY     CLOUDY    25  14  63 SE9       30.17F WCI  15
6HR MIN TEMP:  25; 6HR MAX TEMP:  34;

FOREST CITY *  CLOUDY    27  18  69 SE7       30.15F WCI  19
IOWA FALLS *   MOCLDY    28  20  72 E8        30.16F WCI  19
$$

IAZ007>011-017>019-026>030-037>042-050>054-066-280700-
   NORTHEAST IOWA

CITY           SKY/WX    TMP DP  RH WIND       PRES   REMARKS
CEDAR RAPIDS   PTCLDY    20  13  74 E7        30.18F WCI  11
6HR MIN TEMP:  20; 6HR MAX TEMP:  35;

CHARLES CITY * CLOUDY    23  16  74 E6        30.18S WCI  16
CLINTON *      CLEAR     19  12  73 N3        30.24S
DECORAH *      CLEAR     21  10  63 CALM      30.17F
DUBUQUE        CLEAR     21  10  62 E5        30.18F WCI  15
6HR MIN TEMP:  19; 6HR MAX TEMP:  31;

MONTICELLO *   CLEAR     21  16  79 CALM      30.20S
OELWEIN *      MOCLDY    23  16  74 CALM      30.18F
WATERLOO         N/A     23  15  71 E3        30.18S
6HR MIN TEMP:  22; 6HR MAX TEMP:  33;

$$

IAZ064-065-067-068-078-280700-
   EAST CENTRAL IOWA

CITY           SKY/WX    TMP DP  RH WIND       PRES   REMARKS
DAVENPORT      CLEAR     23  12  62 SE3       30.21F
6HR MIN TEMP:  22; 6HR MAX TEMP:  33;

IOWA CITY      PTCLDY    28  12  51 E7        30.21F WCI  21
6HR MIN TEMP:  24; 6HR MAX TEMP:  37;

MT. PLEASANT * PTCLDY    23  13  67 E6        30.19F WCI  15
MUSCATINE *    CLEAR     23  18  80 CALM      30.22S
QUAD CITIES    CLEAR     23  13  65 CALM      30.21S
6HR MIN TEMP:  20; 6HR MAX TEMP:  35;

$$

IAZ062-063-075>077-085>089-095>099-280700-
   SOUTHEAST IOWA

CITY           SKY/WX    TMP DP  RH WIND       PRES   REMARKS
BURLINGTON     PTCLDY    28  14  55 E6        30.19F WCI  22
6HR MIN TEMP:  27; 6HR MAX TEMP:  35;

FAIRFIELD *    PTCLDY    25  12  58 SE5       30.18F WCI  19
FORT MADISON * CLEAR     27  16  63 CALM      30.20S
KEOKUK *       CLEAR     28  14  54 CALM      30.19S
OSKALOOSA *      N/A     27  13  54 SE6       30.18S WCI  21
CENTERVILLE *  MOCLDY    28  14  54 E6        30.17S WCI  22
OTTUMWA        PTCLDY    26  12  55 SE7       30.17F WCI  18
6HR MIN TEMP:  24; 6HR MAX TEMP:  37;

WASHINGTON *   CLEAR     21  16  79 E3        30.19S
$$

ABBREVIATIONS USED IN REMARKS
   TC - TEMPERATURES IN CELSIUS
  WCI - WIND CHILL INDEX
   HX - HEAT INDEX
  VSB - VISIBILITY
$$




USA.gov is the U.S. government's official web portal to all federal, state and local government web resources and services.